Regional Weather Roundup
Issued by NWS

Home | Current Version | Previous Version | Graphics & Text | Print | Product List | Glossary Off
Versions: 1 2 3 4 5 6 7 8 9 10 11 12 13 14 15 16 17 18 19 20 21 22 23 24 25 26 27 28 29 30 31 32 33 34 35 36 37 38 39 40 41 42 43 44 45 46 47 48 49 50

000
ASUS43 KMKX 180121
RWRWI

WISCONSIN REGIONAL WEATHER ROUNDUP
NATIONAL WEATHER SERVICE MILWAUKEE/SULLIVAN WI
800 PM CDT THU AUG 17 2017

NOTE: "FAIR" INDICATES FEW OR NO CLOUDS BELOW 12,000 FEET WITH NO
SIGNIFICANT WEATHER AND/OR OBSTRUCTIONS TO VISIBILITY.

WIZ001-002-006>008-014>016-023>028-180200-
NORTHWEST WISCONSIN

CITY           SKY/WX    TMP DP  RH WIND       PRES   REMARKS
SUPERIOR ARPT    N/A     64  60  87 N9        29.76R
ASHLAND        CLOUDY    63  60  90 NW9       29.71R
HAYWARD        CLOUDY    63  60  90 N9        29.75R
SIREN          CLOUDY    64  60  87 NW8       29.79R
CUMBERLAND     CLOUDY    63  59  88 NW10G16   29.78R
RICE LAKE      RAIN      63  61  94 NW12      29.78R
CHETEK         RAIN      64  62  94 NW9       29.75R
LADYSMITH      CLOUDY    64  62  94 NW10G20   29.74R
EAU CLAIRE     CLOUDY    66  60  81 NW13G23   29.74R
MENOMONIE      CLOUDY    66  62  87 W9        29.77R
NEW RICHMOND   CLOUDY    67  62  84 NW7       29.79R
OSCEOLA        CLOUDY    68  61  76 NW10G17   29.81R
$$

WIZ003>005-009-010-017-018-180200-
NORTH CENTRAL WISCONSIN

CITY           SKY/WX    TMP DP  RH WIND       PRES   REMARKS
MANITOWISH WTR CLOUDY    59  59 100 N15G21    29.66R
ARBOR VITAE    CLOUDY    62  59  89 NW15G21   29.66R
WOODRUFF       CLOUDY    62  59  89 NW15G21   29.66R
RHINELANDER    CLOUDY    62  60  93 NW10G20   29.65R
EAGLE RIVER    LGT RAIN  60  60 100 NW13G22   29.61R
LAND O LAKES   DRIZZLE   60  59  97 NW9G16    29.64R
PHILLIPS       CLOUDY    60  60 100 NW5       29.70R FOG
TOMAHAWK         N/A     60  58  92 NW10G18   29.67R
MEDFORD        CLOUDY    62  59  89 NW12      29.69R
MERRILL        CLOUDY    64  63  94 NW18G25   29.66R FOG
$$

WIZ029-030-035-036-043>047-180200-
CENTRAL WISCONSIN

CITY           SKY/WX    TMP DP  RH WIND       PRES   REMARKS
WAUSAU         CLOUDY    65  61  87 NW16      29.63R
MOSINEE        CLOUDY    64  63  94 W14       29.66R
MARSHFIELD     CLOUDY    63  60  90 W12G20    29.70R
STEVENS POINT  CLOUDY    64  62  91 W14G20    29.67R
WAUPACA        CLOUDY    68  66  92 W15G21    29.64R
WAUTOMA        CLOUDY    66  62  87 W15G21    29.68R
WISC RAPIDS    CLOUDY    65  62  90 W12G22    29.70R
CAMP DOUGLAS   MOCLDY    66  61  84 W14       29.72R
$$

WIZ011>013-019>022-031-037>040-048>050-180200-
NORTHEAST WISCONSIN

CITY           SKY/WX    TMP DP  RH WIND       PRES   REMARKS
ANTIGO         CLOUDY    65  64  96 NW18G24   29.62R
SHAWANO        HVY RAIN  71  67  88 W9        29.59R
OCONTO         CLOUDY    69  67  94 W7        29.54S
STURGEON BAY   LGT RAIN  70  67  90 SW13G21   29.55S
GREEN BAY      CLOUDY    70  69  97 W18       29.59R
MANITOWOC      LGT RAIN  70  66  87 SW12      29.61R
APPLETON       CLOUDY    68  63  83 W21       29.62R
CLINTONVILLE   CLOUDY    68  63  83 W15G21    29.61R
OSHKOSH        CLOUDY    68  64  87 W14G24    29.64R
$$

WIZ032>034-041-042-053>061-180200-
SOUTHWEST WISCONSIN

CITY           SKY/WX    TMP DP  RH WIND       PRES   REMARKS
LA CROSSE      CLOUDY    72  64  76 NW8       29.74R
SPARTA         CLOUDY    67  61  80 W8        29.75R
VIROQUA        CLOUDY    65  64  94 NW6       29.77R
BOSCOBEL       CLOUDY    72  64  76 SW3       29.75R
PRAIRIE DU CHI CLOUDY    73  62  68 W9G17     29.76S
PLATTEVILLE    CLOUDY    69  68  96 NW6       29.78R
$$

WIZ056-057-062-063-064-067-068-180200-
SOUTH CENTRAL WISCONSIN

CITY           SKY/WX    TMP DP  RH WIND       PRES   REMARKS
REEDSBURG      CLOUDY    66  64  91 W9        29.73R
BARABOO/DELLS  CLOUDY    66  60  79 W9G20     29.72S
LONE ROCK      CLOUDY    70  63  78 W12       29.74R
MINERAL POINT  CLOUDY    70  66  88 W9        29.77R
MADISON        CLOUDY    68  63  84 W16G25    29.71R
MIDDLETON      CLOUDY    68  66  93 NW10G17   29.73R
WATERTOWN      CLOUDY    69  66  89 W10G21    29.69S
MONROE         CLOUDY    70  63  78 W15G24    29.76S
JANESVILLE     CLOUDY    72  64  78 W14       29.74R
$$

WIZ051-052-058>065-066-070>072-180200-
SOUTHEAST WISCONSIN

CITY           SKY/WX    TMP DP  RH WIND       PRES   REMARKS
MILWAUKEE      MOCLDY    74  66  76 W13       29.69R
WAUKESHA       CLOUDY    70  63  78 SW14      29.71R
MILWAUKEE/TIMM CLOUDY    72  61  68 W15G23    29.69R
RACINE         CLOUDY    74  65  73 W12G21    29.71R
KENOSHA        CLOUDY    75  63  66 W23G30    29.71R
FOND DU LAC    CLOUDY    70  63  78 W13G23    29.66R
SHEBOYGAN      CLOUDY    72  66  81 W13G21    29.63R
WEST BEND      MOCLDY    70  64  83 SW14G20   29.67R
JUNEAU         RAIN      68  64  89 W18G24    29.70R
$$

LSZ147-162-180200-
LAKE SUPERIOR

STATION/POSITION TIME  TEMP    WIND        PRES    WAVE
                       AIR SEA DIR/SP/G            HT/PER
                 (UTC) (F)     (DEG/KT/KT) (MB)    (FT/S)
W MID LAKE BUOY  0050   60 60  300/ 14/ 17 1003.2R   5/ 6
DEVILS ISLAND    0100   63     320/ 16/ 17 1005.5R
SAXON HARBOR     0030   63     320/  8/ 10 1005.1S
$$

LMZ867-665-643>646-180200-
LAKE MICHIGAN

STATION/POSITION TIME  TEMP    WIND        PRES    WAVE
                       AIR SEA DIR/SP/G            HT/PER
                 (UTC) (F)     (DEG/KT/KT) (MB)    (FT/S)
S GREEN BAY BUOY 0100   72 72  220/ 21/ 25 1000.1
N MID LAKE BUOY  0050   69 68  190/ 16/ 19 1000.4F   5/ 6
NORTHPORT PIER   0040   70     160/  3/  7 1000.0F
KEWAUNEE LAKESHO 0054   73     250/ 10/ 17 1001.1R
SHEBOYGAN LAKESH 0100   74     250/ 17/ 19 1002.5R
PORT WASHINGTON  0040   74     250/  7/ 13 1005.1R
ATWATER BUOY     0009   73 70  240/ 19/ 23 1005.0R
MILWAUKEE LAKESH 0100   73     260/ 15/ 19   N/A
S MID LAKE BUOY  0050   73 71  300/ 12/ 16 1005.4R   3/ 5
KENOSHA   LAKESH 0100   76     260/ 18/ 23 1005.8
$$

TC  - TEMPERATURE IN CELSIUS
VSB - VISIBILITY IN STATUTE MILES
WCI - WIND CHILL INDEX
HX  - HEAT INDEX





USA.gov is the U.S. government's official web portal to all federal, state and local government web resources and services.